Simultaneous Nadir Overpasses (SNOs) Predictions

Prediction of SNOs between FY3D and AQUA Satellite Orbit:

Table of predicted SNOs for the next 14.0 days since TLE Epoch: 5/7/2023
Index Date (FY3D) Time (FY3D) Lat,Lon (FY3D) SZA (FY3D ) Date (AQUA) Time (AQUA) Lat,Lon (AQUA) SZA (AQUA ) Distance(km) Time Diff (sec)
1 05/09/2023 06:26:53 -78.38,-114.58 118.44 05/09/2023 06:27:22 -78.39,-114.67 118.44 2.30 29
2 05/09/2023 07:17:28 77.95, 55.13 61.00 05/09/2023 07:16:37 77.96, 55.09 61.02 0.90 51
3 05/11/2023 20:12:32 78.50,-141.64 61.04 05/11/2023 20:13:15 78.50,-141.69 61.04 1.13 43
4 05/11/2023 21:03:05 -78.01, 28.45 119.60 05/11/2023 21:02:28 -78.02, 28.38 119.59 1.80 37
5 05/14/2023 09:58:08 -78.52,-168.11 119.58 05/14/2023 09:59:04 -78.52,-168.21 119.58 2.48 56
6 05/14/2023 10:48:45 78.18, 1.16 59.98 05/14/2023 10:48:21 78.18, 1.15 59.99 0.42 24
7 05/16/2023 23:43:47 78.65, 164.69 60.01 05/16/2023 23:44:55 78.65, 164.67 59.99 0.42 68
8 05/17/2023 00:34:21 -78.20, -25.31 120.60 05/17/2023 00:34:09 -78.21, -25.40 120.59 2.31 12



Historial Predications of SNOs between FY3D and AQUA
